GFSSW_850_rhum_054.txt.gz
RH
24 20 19 17 15 20 28 27 26 25 24 23 22 20 22 20 19 19 18 18 18 17 17 16 17 21 23 22 23 30 44 50 43 58 44 46 45 39 38 35 36 33 32 28 26
19 17 16 14 17 26 28 25 24 24 23 22 22 19 18 18 20 19 16 16 16 16 15 15 16 18 24 22 21 33 47 38 37 46 41 47 42 36 35 34 34 32 31 30 30
14 11 12 16 25 28 24 23 22 22 22 21 20 18 16 19 20 19 15 14 14 14 14 14 15 19 24 23 23 34 40 36 28 29 35 44 43 35 35 39 32 31 30 31 31
10 13 16 23 29 27 23 22 21 20 20 20 19 18 16 17 21 17 16 13 13 14 14 14 16 20 25 25 26 25 31 30 28 28 35 43 39 36 34 34 31 30 30 30 30
13 18 21 26 27 25 23 22 20 19 18 18 17 17 16 16 19 18 15 14 14 14 15 15 17 20 23 26 26 28 29 29 28 30 35 37 37 39 37 34 34 30 25 25 28
15 18 25 27 25 24 22 21 20 19 17 17 17 16 16 18 17 18 17 15 16 16 16 19 19 21 23 27 28 29 29 29 28 30 30 33 32 31 26 22 27 28 29 28 25
15 20 24 24 23 22 21 20 20 19 18 17 17 17 18 17 17 17 16 16 18 16 18 18 20 19 23 26 26 27 27 27 28 28 28 29 34 39 22 22 21 22 24 26 25
16 21 22 23 23 22 21 20 20 19 19 18 17 18 18 18 18 16 17 18 19 19 18 20 21 21 24 25 27 31 31 34 29 31 29 28 36 26 19 24 23 23 23 25 25
23 20 22 23 22 22 22 20 20 19 19 19 18 18 17 18 19 18 18 18 17 19 20 21 21 22 25 32 33 37 36 34 32 32 32 33 36 26 22 26 24 22 22 23 24
24 22 23 22 22 22 22 21 18 20 20 18 19 18 18 18 19 18 18 18 17 18 19 21 24 35 38 36 28 18 30 32 38 29 36 39 42 31 27 26 24 22 22 23 23
25 23 22 23 23 23 20 20 22 23 21 17 17 18 19 19 19 17 18 18 18 20 23 22 29 30 29 35 26 21 25 25 24 25 36 42 40 33 28 31 32 27 23 22 21
25 23 24 24 23 22 20 23 17 24 22 18 19 18 19 19 18 17 18 18 19 23 21 25 30 26 21 25 24 22 23 27 25 33 39 40 37 27 25 32 27 24 19 17 18
24 24 24 23 22 23 20 20 24 25 27 20 21 19 18 19 18 18 20 19 21 23 23 26 21 21 21 21 23 24 25 26 25 27 34 41 40 30 25 30 27 24 20 18 16
24 24 24 24 27 28 24 24 24 25 31 22 22 20 21 20 18 20 20 17 21 24 22 25 23 23 23 24 25 25 23 24 28 31 32 32 38 33 26 31 31 23 21 14 13
26 25 25 25 30 29 30 24 24 26 29 18 21 21 22 21 20 22 22 20 20 21 23 25 24 26 27 25 23 24 28 28 30 37 42 41 44 36 29 22 19 22 16 12 11
28 26 26 25 29 28 25 23 28 31 29 24 24 23 23 23 22 23 22 21 24 25 27 31 25 23 24 23 22 27 25 39 53 51 54 43 43 38 25 20 22 20 16 13 11
28 29 28 26 26 28 24 24 33 37 21 25 24 26 26 25 24 26 25 26 27 24 25 28 30 26 24 24 26 26 26 36 34 53 49 43 48 38 26 25 25 24 17 15 15
22 28 29 28 27 26 26 32 32 24 34 24 25 26 27 24 24 26 29 34 30 28 35 32 28 30 26 23 24 29 27 33 30 43 38 38 41 28 25 22 19 18 16 15 13
25 24 28 29 29 27 28 36 28 27 26 27 25 30 29 26 26 28 30 34 30 32 30 32 28 30 27 24 25 30 39 32 37 40 55 40 32 22 18 17 15 17 15 12 11
27 28 29 31 31 29 35 37 28 30 26 26 24 26 30 27 29 28 28 27 28 29 25 26 33 30 30 26 28 28 29 33 43 39 42 39 37 28 20 17 18 19 16 14 12
30 30 37 38 38 31 42 41 32 27 28 28 27 28 32 28 31 31 27 27 28 29 26 26 30 28 31 35 34 36 34 37 40 50 46 55 39 25 20 18 20 20 14 14 13
30 36 45 45 41 53 47 39 31 30 31 31 31 32 32 30 32 36 36 30 30 27 28 28 35 35 28 28 29 30 31 36 38 32 59 62 36 17 16 18 21 20 16 15 15
28 38 46 41 54 55 46 42 35 33 34 33 33 37 35 34 33 36 33 35 31 28 28 29 36 41 39 32 30 31 33 31 38 44 42 38 32 19 21 20 17 18 17 17 17
30 43 52 46 45 44 44 43 41 36 36 36 35 38 40 41 41 38 36 35 34 31 32 27 39 35 43 36 31 33 33 36 34 47 33 40 28 22 21 22 20 19 20 21 20
39 45 63 66 66 57 49 46 43 40 40 39 40 43 44 46 43 49 42 40 40 39 37 39 49 45 40 36 36 36 38 35 41 31 37 31 31 26 23 23 22 23 22 22 22
48 61 64 65 63 62 59 56 56 48 46 43 45 44 47 50 43 45 42 42 44 48 43 48 53 47 56 46 47 49 48 42 39 37 36 33 35 25 25 23 25 26 26 24 24
77 61 57 58 58 70 69 58 54 49 46 43 45 48 50 50 43 40 41 40 40 46 55 54 59 58 55 46 49 61 50 40 37 41 38 39 27 26 28 29 25 20 23 26 24

GFSSW_850_rhum_057.txt.gz
RH
24 23 22 19 17 19 28 27 27 25 24 23 22 20 20 20 19 19 18 18 18 18 17 17 17 21 22 22 23 29 41 45 43 52 40 47 45 41 41 39 38 34 34 30 24
22 20 18 16 16 26 28 26 25 24 24 22 22 20 17 18 19 18 15 15 15 15 15 15 16 17 22 22 22 32 46 39 36 44 42 47 46 38 38 38 37 35 34 33 30
18 16 13 14 23 29 26 25 24 23 22 22 21 20 17 17 19 19 16 14 13 14 14 14 14 18 24 24 23 36 36 37 32 34 36 43 48 39 39 41 35 33 33 33 32
11 12 14 20 29 28 25 24 23 21 21 20 20 19 17 16 21 17 18 14 13 13 15 14 15 20 25 26 26 26 29 31 29 29 35 43 41 40 37 32 30 30 31 31 31
12 15 19 27 28 26 24 23 22 20 19 19 18 18 17 16 17 18 18 16 14 14 15 15 17 20 24 25 26 29 28 30 29 29 34 37 39 39 39 33 34 33 31 28 28
15 18 22 27 27 25 23 22 21 20 18 17 17 17 16 17 17 17 17 16 16 15 16 18 19 21 23 26 29 29 29 28 28 29 34 36 34 34 27 21 29 34 33 33 29
17 21 24 26 24 23 23 21 20 19 18 17 16 16 16 16 17 17 17 16 17 18 18 19 20 20 23 26 26 27 29 30 28 29 30 31 33 37 18 22 22 20 26 30 28
19 22 22 22 22 22 22 20 20 19 17 17 17 16 16 17 18 18 17 18 19 18 19 20 21 21 24 25 27 30 31 32 28 31 29 27 31 24 18 21 20 22 22 21 20
22 20 18 20 22 21 22 21 19 19 18 19 18 17 16 18 19 19 18 18 18 19 20 21 22 22 26 30 30 32 33 35 33 33 31 32 33 26 20 22 19 17 16 19 19
22 19 20 23 22 21 21 20 19 18 20 20 20 19 17 18 19 18 17 18 18 19 20 22 24 33 38 32 28 22 26 30 36 28 36 39 37 27 25 26 25 20 17 17 18
24 24 23 24 21 21 20 20 20 23 25 18 17 17 18 19 18 18 17 19 19 20 23 22 28 31 28 34 28 22 26 28 25 23 35 38 35 29 25 30 31 27 23 21 20
27 25 24 23 22 22 20 22 18 22 20 20 20 19 19 19 19 17 18 18 19 23 22 24 30 26 24 26 30 27 25 26 25 30 39 37 34 24 22 24 26 27 28 22 17
24 24 24 23 22 22 21 20 22 24 28 21 21 22 19 18 18 18 20 20 22 24 24 26 20 22 22 23 24 26 26 25 24 28 34 40 34 30 21 28 23 24 24 21 16
25 24 24 23 24 26 26 24 23 26 30 22 23 21 22 22 19 20 21 18 22 25 25 27 23 24 24 26 26 29 24 26 29 32 30 31 28 26 26 27 27 19 19 17 14
27 25 24 23 29 30 30 26 25 28 23 18 22 21 22 20 20 22 22 21 21 20 24 21 23 27 28 26 24 26 29 30 31 36 42 40 39 28 29 20 17 19 15 15 15
27 26 25 25 25 27 26 24 30 24 23 24 24 24 23 24 22 24 23 22 24 26 27 30 26 24 26 24 23 27 26 40 54 46 42 39 40 33 28 16 21 20 17 15 16
26 26 27 26 26 32 25 26 29 29 21 26 24 26 26 26 25 26 26 27 28 25 27 28 29 27 25 26 27 26 29 37 28 38 34 45 45 31 24 24 25 24 15 13 12
22 25 29 28 27 25 26 29 28 21 34 26 26 27 28 25 25 27 30 33 31 27 35 34 26 31 27 25 25 28 28 31 28 32 32 46 39 23 24 21 18 16 16 13 13
24 24 28 30 29 27 28 36 26 26 26 28 26 30 29 28 27 28 31 34 31 32 31 32 29 30 27 25 26 32 36 30 35 43 47 36 30 22 18 16 15 14 15 15 13
28 29 30 31 32 30 34 38 27 28 28 27 26 26 30 28 30 29 28 26 28 30 26 26 34 30 31 27 29 28 30 32 40 36 39 36 35 26 20 18 18 17 17 15 16
29 30 36 39 38 32 43 42 32 26 29 28 28 28 31 30 31 31 27 27 29 30 27 26 31 30 30 33 32 36 35 39 39 44 39 45 40 26 21 19 22 21 19 18 18
28 35 45 45 43 55 50 39 32 31 33 32 31 31 32 31 32 35 34 32 31 28 29 30 36 37 30 29 29 29 32 35 37 34 50 52 38 18 20 21 22 21 20 21 22
28 38 46 48 60 61 48 42 36 34 34 34 33 36 35 34 34 37 34 33 32 29 30 31 37 46 42 34 30 32 33 32 38 40 39 37 33 21 22 20 21 24 25 24 21
32 39 55 47 45 46 44 43 40 38 37 36 36 38 40 42 42 37 38 36 35 32 32 27 42 41 44 38 33 37 36 36 34 43 36 38 31 26 24 27 25 24 23 23 24
46 44 56 70 64 58 48 46 44 41 42 41 44 44 45 47 46 51 44 40 40 40 38 40 51 47 42 38 38 37 40 38 39 33 40 34 34 28 26 27 27 26 28 25 26
57 58 67 69 66 64 61 58 56 48 45 45 46 45 48 52 46 44 42 44 48 48 46 50 54 51 58 48 46 50 47 44 42 39 40 37 38 27 26 26 28 32 31 29 28
76 60 59 65 67 74 73 61 59 52 48 45 47 51 52 52 44 43 43 41 41 48 56 57 60 62 54 52 56 66 50 45 45 46 42 45 31 33 34 34 35 37 30 34 44

GFSSW_850_rhum_060.txt.gz
RH
28 24 23 20 19 18 29 29 26 26 25 23 21 19 20 20 19 19 18 17 17 17 17 17 18 21 23 22 22 26 19 18 18 24 17 36 33 38 39 35 37 34 32 32 24
26 22 20 18 16 23 30 28 26 25 24 23 21 18 17 19 20 17 15 15 13 14 15 15 20 18 23 25 26 23 21 15 20 22 23 32 34 31 34 34 34 34 35 34 30
22 19 17 14 18 30 28 26 24 24 23 22 21 19 17 17 20 18 17 17 13 13 14 15 15 20 23 26 25 27 18 20 21 27 33 32 38 37 32 30 29 28 31 34 34
16 13 13 16 28 28 26 24 22 22 21 21 20 19 18 17 19 17 18 17 16 14 14 15 17 19 21 22 26 23 20 24 25 29 31 29 33 33 33 27 30 30 30 32 33
12 14 16 25 30 27 25 24 21 20 20 19 18 18 17 17 18 17 17 17 16 14 15 15 18 19 18 21 25 23 20 25 26 29 30 33 31 30 29 31 31 32 31 31 30
15 18 22 29 28 26 24 22 20 20 19 18 17 17 17 18 18 17 17 17 15 16 16 16 20 21 22 22 23 25 25 22 23 24 29 31 24 32 18 21 27 33 34 33 32
18 20 25 28 27 25 22 21 20 19 18 18 17 16 16 18 18 17 18 16 16 17 17 18 19 22 25 24 27 24 21 16 19 22 22 29 22 26 16 23 21 25 28 32 32
18 22 26 28 25 22 21 20 19 19 18 18 17 16 17 17 17 18 18 17 17 18 19 20 20 21 25 26 23 20 22 19 21 24 25 25 16 12 15 19 20 19 20 24 26
19 21 23 24 23 22 22 21 20 19 19 18 18 17 16 17 19 19 19 18 18 18 20 21 23 25 25 18 15 20 15 17 17 24 23 24 17 11 18 21 18 15 15 19 22
22 22 24 24 23 20 20 21 21 20 19 21 20 18 17 18 19 19 18 18 19 19 22 24 24 20 21 18 16 16 16 15 19 19 26 22 22 15 12 14 17 16 14 15 18
27 26 26 24 22 19 22 21 24 24 24 19 18 17 17 19 19 19 18 20 20 20 17 22 19 17 12 17 18 20 21 19 16 15 22 18 17 16 14 14 15 16 18 16 16
30 27 25 23 22 22 21 22 18 21 19 20 22 19 18 20 19 19 18 19 19 16 20 19 18 13 20 21 24 23 22 17 16 20 26 18 20 16 14 14 16 15 16 17 19
27 24 24 24 23 23 20 20 21 23 26 23 21 22 21 20 19 18 19 21 18 20 18 17 14 21 20 20 22 19 20 18 20 19 19 23 17 15 10 16 17 18 19 21 22
25 26 26 24 25 27 24 23 24 23 20 19 23 22 22 22 21 20 20 20 19 18 20 19 20 21 22 21 21 23 19 21 22 24 22 21 22 15 11 13 12 13 15 18 21
30 27 25 25 29 29 29 27 24 24 17 19 21 22 23 20 20 22 22 21 19 17 21 16 20 23 24 21 21 20 26 25 27 25 28 24 26 14 16 11 10 12 14 16 18
28 27 25 24 26 26 25 25 26 20 18 24 24 23 22 24 23 25 24 23 24 22 22 20 26 22 21 22 21 24 23 28 33 28 28 25 27 14 13 13 13 11 13 14 16
26 28 28 26 26 31 25 25 22 20 22 25 24 24 23 22 22 24 23 23 22 22 22 22 23 25 25 25 25 22 24 22 21 24 21 31 31 18 14 13 14 14 14 15 16
24 26 29 28 26 26 27 22 24 19 23 25 25 26 25 23 23 24 26 23 26 23 24 26 19 26 24 24 24 25 24 22 28 20 19 33 29 16 14 13 14 16 16 17 18
26 25 30 30 29 27 27 24 18 19 24 25 25 26 25 26 25 24 24 23 24 23 24 23 24 27 26 23 24 29 27 25 24 27 30 20 18 15 12 11 11 14 17 19 21
29 29 29 32 32 29 25 27 22 23 28 26 25 23 24 23 25 23 20 22 26 26 24 22 26 27 28 26 26 25 24 27 25 30 28 20 22 18 14 12 13 16 18 20 22
31 33 35 35 35 32 30 27 26 25 30 26 26 25 24 24 24 23 20 24 26 26 25 22 25 24 27 27 24 28 26 27 28 28 27 26 19 14 16 14 18 18 20 21 23
30 34 41 43 40 46 34 30 30 30 34 32 29 25 25 27 26 26 24 24 30 26 27 24 25 29 24 25 26 24 23 22 26 27 26 27 28 14 14 15 18 21 22 24 27
28 37 47 48 37 40 42 37 37 33 32 32 32 32 30 29 30 28 30 34 33 28 27 25 27 30 24 29 26 26 25 23 25 28 32 32 26 14 14 15 19 22 23 26 29
34 37 59 51 49 39 39 36 35 38 36 35 34 35 34 34 32 32 32 37 36 32 31 27 32 32 29 24 25 30 28 27 28 35 30 28 25 20 18 19 22 24 29 29 30
50 41 48 50 50 43 41 39 40 38 42 41 40 37 36 38 39 39 38 36 40 40 37 32 41 34 32 30 31 33 34 32 34 31 34 29 25 22 21 23 24 29 33 32 34
64 58 62 62 66 52 53 47 43 38 38 41 43 40 39 39 34 35 37 40 39 43 39 40 44 44 45 36 36 41 37 36 35 33 32 31 33 23 26 27 33 35 36 34 36
71 56 59 66 61 54 50 47 49 47 50 47 42 43 46 43 44 44 44 44 41 40 39 42 42 41 48 34 43 45 34 36 34 29 32 38 28 29 36 39 40 42 39 43 43

GFSSW_850_rhum_063.txt.gz
RH
29 28 25 23 19 17 24 28 28 27 25 23 20 20 19 20 19 19 18 17 16 16 16 17 26 27 26 26 27 26 16 16 14 13 12 21 22 22 30 28 30 29 29 30 30
25 25 24 21 18 18 29 28 26 25 24 23 20 18 18 20 19 17 15 16 14 12 18 20 17 22 19 21 23 20 18 16 11 14 14 14 24 18 28 24 25 27 29 32 31
23 23 21 18 16 25 29 26 25 24 23 22 21 19 17 18 24 17 17 17 16 14 13 18 18 18 16 20 18 15 19 11 14 15 19 20 19 25 26 24 19 21 24 31 35
20 19 17 14 20 30 28 25 24 23 22 21 20 19 18 17 18 17 17 17 16 15 17 17 17 16 16 16 18 20 12 15 16 19 22 20 19 21 23 22 18 23 23 26 30
14 13 13 18 30 29 26 24 22 22 21 20 19 19 18 19 16 17 17 16 16 14 17 16 15 13 15 13 18 18 15 16 18 20 22 22 21 22 20 18 19 22 28 26 31
13 14 17 26 30 28 26 24 22 21 20 19 18 18 20 17 18 17 17 17 17 18 18 18 17 17 15 16 18 19 20 18 16 16 18 22 20 21 17 14 18 19 23 29 29
16 19 24 29 29 27 25 24 22 20 19 18 18 17 19 18 18 18 18 18 16 19 19 18 21 19 20 14 19 19 18 13 12 15 16 22 20 19 15 15 14 16 18 24 26
19 22 26 29 28 26 24 23 22 21 19 18 18 17 19 18 17 18 19 20 17 17 18 18 19 21 20 22 17 18 14 18 17 18 20 22 16 10 10 11 11 14 13 15 21
20 22 25 27 26 25 23 23 22 20 19 19 18 20 16 17 18 20 19 20 21 19 18 20 22 20 23 18 13 13 16 12 11 18 17 21 18 12 11 12 13 13 12 10 12
21 22 23 24 24 25 23 22 21 21 20 20 21 20 16 16 19 19 19 18 20 22 21 22 19 18 16 15 16 13 13 12 13 12 20 19 17 12 10 10 11 11 10 11 12
24 25 24 24 25 24 23 24 25 25 25 17 17 15 17 19 18 19 20 21 20 18 16 17 17 14 10 11 13 16 17 16 13 13 19 17 15 13 11 11 10 10 10 10 12
27 27 25 26 26 25 24 24 23 24 19 22 22 19 18 21 17 18 18 19 17 15 13 16 16 13 15 16 18 16 17 16 12 17 21 18 19 16 12 11 14 14 15 16 16
29 27 26 26 25 26 26 24 20 20 20 21 22 21 21 21 18 16 18 17 15 14 13 16 12 17 16 15 17 15 16 17 17 16 15 19 17 12 10 10 12 13 13 15 18
28 28 26 26 26 32 30 22 22 23 19 18 22 22 23 22 19 21 20 19 16 16 14 15 16 18 18 17 16 20 17 18 19 24 22 18 22 12 10 9 11 12 14 16 18
28 28 27 26 40 32 30 24 23 25 26 18 20 22 23 19 19 22 21 21 18 15 17 15 15 18 19 18 18 18 22 21 24 25 23 22 24 12 10 10 10 11 13 16 16
27 29 26 26 32 27 27 26 24 27 19 22 20 20 19 20 19 24 22 22 22 18 16 18 20 19 18 20 20 19 21 20 24 25 28 20 22 14 10 12 11 11 13 16 16
26 29 28 28 34 28 26 27 25 20 17 23 22 20 19 19 19 20 20 21 20 21 18 18 20 21 22 23 23 22 21 20 27 32 21 24 24 16 12 11 11 13 14 16 18
24 28 31 29 27 32 26 23 25 15 16 22 22 22 22 20 20 20 20 20 20 21 20 19 18 21 21 22 22 22 23 20 27 18 17 23 26 16 12 11 12 14 15 18 19
26 27 31 29 28 26 29 24 15 15 19 22 23 23 20 22 21 20 19 17 18 19 20 19 18 22 22 21 22 26 26 22 23 18 23 18 14 13 10 10 11 15 17 19 22
31 40 44 30 30 27 26 24 18 18 23 23 20 18 18 20 21 19 13 16 21 22 20 18 21 22 26 24 23 24 21 25 24 30 26 16 16 16 13 12 13 16 18 21 25
36 39 36 29 34 33 29 21 19 21 26 22 17 18 17 18 18 16 15 20 20 23 22 20 21 22 24 25 21 24 24 25 24 23 26 26 19 13 14 13 14 15 19 21 24
37 32 37 40 35 27 26 23 25 23 27 26 25 20 18 18 20 19 18 18 24 23 24 20 23 25 19 21 20 21 22 21 26 23 22 24 24 11 13 14 14 16 20 21 25
42 42 44 45 35 34 29 29 30 28 25 26 26 26 23 22 25 21 22 28 31 25 24 22 24 30 21 24 22 24 20 21 20 22 29 32 26 13 13 13 14 20 22 23 28
41 36 58 56 49 34 27 28 29 37 29 28 26 28 28 27 24 24 27 34 32 29 30 27 29 30 31 25 22 28 25 23 26 32 30 28 24 20 18 21 21 22 26 28 31
55 40 47 46 45 39 29 28 32 33 35 33 33 30 28 28 28 30 27 30 37 38 33 30 37 30 28 28 29 31 32 30 31 28 32 28 28 23 22 25 25 28 31 34 34
65 55 52 45 52 41 40 30 32 27 31 32 34 29 29 32 27 30 30 30 29 38 36 35 41 36 40 32 31 31 29 29 29 30 29 28 28 20 26 30 35 36 37 37 37
74 56 58 51 46 41 35 35 37 30 39 40 33 32 37 33 37 38 39 38 35 38 37 38 41 43 48 31 35 43 29 26 25 26 26 31 24 21 32 37 40 42 41 42 46

GFSSW_850_rhum_066.txt.gz
RH
30 28 26 23 20 18 19 29 28 27 25 23 21 21 19 20 20 19 24 18 15 14 15 23 27 27 26 24 24 25 29 28 24 18 19 15 18 18 24 24 25 25 26 28 28
27 27 24 21 19 17 25 28 28 26 25 23 20 18 18 20 19 22 18 16 16 14 19 20 17 20 22 21 23 25 33 25 16 14 18 16 16 17 23 26 26 25 27 29 30
25 25 22 20 17 18 29 27 26 25 24 23 21 19 17 18 22 21 17 17 16 15 14 18 17 16 17 16 20 20 30 22 15 14 20 21 20 17 20 30 23 22 24 26 28
24 22 18 17 16 25 29 27 25 24 23 22 21 20 18 17 25 18 17 16 15 15 15 17 16 16 19 21 15 24 17 13 14 16 20 22 18 18 17 19 21 21 19 26 26
20 18 15 14 19 31 28 26 24 23 22 21 20 19 18 22 21 17 17 16 16 16 18 16 15 14 20 15 14 20 19 16 16 16 18 20 22 23 20 19 18 18 19 24 27
13 13 13 16 28 30 28 25 24 22 22 20 19 18 18 22 19 18 17 17 17 17 17 18 17 18 18 15 18 16 19 19 17 16 15 19 20 20 18 16 16 17 18 19 26
13 15 16 24 30 29 27 25 23 22 21 20 19 19 18 19 19 18 18 18 17 17 19 20 18 19 18 19 20 19 23 20 16 14 17 22 25 25 13 15 16 15 16 17 21
15 18 22 28 29 28 26 24 23 22 20 20 19 20 22 19 19 18 18 20 18 18 16 16 17 21 20 19 18 20 21 24 17 17 21 20 27 16 12 12 13 12 12 14 15
17 19 23 27 28 27 25 23 23 22 21 20 20 22 20 19 17 18 19 20 20 19 19 17 20 20 21 24 24 19 22 18 17 19 19 25 30 20 14 13 13 12 12 12 12
16 20 23 25 27 25 23 22 23 22 22 22 20 20 19 17 18 18 18 19 20 20 22 23 22 24 24 24 29 22 21 19 20 16 23 27 24 17 14 14 13 12 13 12 12
19 20 22 24 25 25 24 24 26 26 32 19 18 16 16 18 16 18 20 20 20 19 23 19 23 24 17 19 18 18 19 21 18 18 21 23 20 18 15 15 15 14 15 16 17
25 26 26 26 27 26 25 26 26 28 26 20 19 20 19 20 18 18 18 19 18 23 17 20 24 17 14 15 17 20 22 23 19 17 19 23 22 19 19 15 14 15 16 18 19
28 28 27 27 27 25 25 33 27 20 24 18 22 21 21 20 18 16 18 17 18 20 17 19 17 16 17 18 19 18 21 22 22 21 21 23 27 16 14 14 14 15 17 18 18
29 29 28 27 27 33 36 26 20 22 26 21 22 22 20 21 21 19 18 18 16 17 17 18 18 18 18 19 18 25 21 22 24 30 35 23 41 21 16 18 19 16 16 17 18
28 28 28 28 42 34 34 25 22 24 30 18 21 22 22 21 20 22 20 20 20 18 18 19 18 19 22 21 20 21 24 26 26 33 34 26 33 24 14 15 17 19 16 17 18
28 28 30 29 29 36 31 28 25 32 29 24 21 22 21 20 19 24 22 21 21 21 19 21 19 20 21 21 20 21 25 28 28 33 41 28 28 26 17 14 16 16 15 18 20
27 29 30 33 38 33 27 27 33 31 16 26 24 21 20 22 20 21 24 26 27 29 29 23 22 22 22 25 25 26 31 36 45 48 41 27 29 26 17 15 16 16 19 21 22
25 26 30 28 28 32 28 33 40 16 19 22 21 21 23 21 21 22 23 27 23 21 26 24 27 25 24 23 25 26 27 31 35 31 28 28 35 25 14 12 14 17 20 24 26
25 26 28 28 30 31 34 38 22 19 19 22 24 26 26 23 24 22 25 23 21 22 25 24 25 22 22 21 23 28 32 25 30 26 32 25 19 16 14 16 18 18 21 24 26
34 46 37 26 31 30 37 34 21 18 22 23 25 21 19 25 26 21 16 18 25 22 20 20 27 24 29 24 24 26 25 32 32 42 37 27 26 24 19 17 18 18 22 23 25
44 44 44 35 34 38 39 32 20 19 24 24 21 18 19 18 20 19 16 21 20 24 22 23 24 27 26 31 27 35 32 29 29 34 40 43 33 16 18 20 19 20 22 22 25
55 46 42 37 44 33 38 24 23 21 23 27 26 26 24 19 21 20 19 26 22 23 25 26 30 34 25 23 23 22 24 26 36 33 33 35 30 17 18 18 18 22 23 23 27
49 42 40 43 44 40 33 29 28 27 29 29 29 25 25 22 25 24 23 29 28 25 28 25 32 38 30 29 25 25 24 25 26 29 36 43 36 19 19 22 23 25 28 29 32
46 53 62 52 46 47 38 32 33 31 31 25 26 26 28 29 24 26 28 35 31 30 29 28 35 38 42 34 31 36 33 30 34 43 40 38 33 26 25 28 28 28 32 35 36
56 51 48 63 53 50 39 30 33 41 37 29 32 33 31 32 29 30 29 44 37 36 33 34 47 38 35 34 35 39 39 38 40 36 45 37 36 30 27 31 33 35 37 40 40
68 58 45 48 47 48 49 40 37 31 36 38 40 33 33 36 32 32 30 31 33 41 39 40 54 45 50 40 38 39 35 34 34 33 34 33 35 26 27 32 37 39 42 43 42
61 66 55 42 47 47 47 40 35 31 30 31 36 36 37 36 39 41 39 38 37 38 46 51 55 54 62 41 48 57 39 34 35 33 32 39 32 41 42 41 41 43 44 44 44

GFSSW_850_rhum_072.txt.gz
RH
30 30 29 26 23 20 17 22 28 28 27 24 23 22 20 20 20 20 20 18 15 14 15 18 19 23 25 24 25 26 31 31 23 22 19 16 20 17 22 24 22 23 25 25 24
28 30 28 23 21 20 16 25 28 28 27 24 22 20 19 20 20 19 17 16 17 16 18 18 17 18 26 25 26 27 44 31 23 20 21 20 22 20 21 22 25 23 24 26 28
27 27 26 21 19 19 17 28 28 27 26 25 23 21 19 18 19 18 19 17 17 16 15 16 17 18 22 21 25 29 35 30 23 19 21 22 21 18 20 25 16 16 16 25 27
25 24 23 21 16 17 18 29 28 26 26 24 23 22 20 19 28 19 20 18 16 16 16 16 16 17 20 23 21 26 25 25 22 19 20 21 19 21 20 16 15 17 19 22 26
22 22 22 18 15 16 21 29 27 26 25 24 22 21 20 22 19 20 18 17 16 18 16 18 17 19 21 21 19 24 22 20 18 19 19 20 20 22 18 13 14 16 18 20 26
22 20 18 16 15 16 28 27 26 25 24 23 22 20 20 25 20 20 18 17 18 18 17 18 18 19 20 20 22 20 22 21 19 17 19 20 21 19 13 13 13 15 16 16 19
15 14 13 13 14 22 30 26 25 24 23 22 21 20 20 19 20 20 20 18 19 18 17 18 20 19 19 22 20 20 24 23 19 20 20 21 23 25 12 14 15 15 15 15 15
13 14 15 15 22 31 29 26 24 23 23 22 22 21 20 19 19 20 20 20 19 19 18 17 18 18 21 21 22 23 24 29 20 20 21 20 31 22 15 16 17 18 18 16 14
15 17 18 21 28 30 27 26 24 23 23 22 22 21 21 21 20 20 21 20 20 20 19 20 18 20 24 29 32 27 27 25 22 17 22 23 27 22 20 17 18 19 18 17 16
14 19 22 25 29 29 28 25 23 22 22 23 25 25 21 20 18 18 19 22 21 20 21 23 23 30 33 33 34 29 25 22 24 17 24 28 32 25 18 18 20 18 19 18 17
16 20 23 24 26 26 26 23 22 25 25 20 20 19 17 18 19 19 19 19 21 21 26 24 31 35 29 28 26 23 22 24 25 21 22 25 27 23 21 20 20 20 19 19 20
16 20 23 24 24 24 23 24 28 30 28 21 22 22 19 19 18 18 19 18 21 27 24 27 34 29 26 22 21 23 24 26 24 21 25 27 30 26 22 22 20 20 21 21 18
21 24 24 26 25 24 24 24 26 32 29 22 20 20 22 21 19 18 19 19 21 26 26 30 24 20 22 20 21 22 23 24 26 29 27 29 26 28 22 22 21 22 22 22 21
28 29 28 28 28 27 26 26 27 28 35 26 24 23 24 21 21 20 18 18 20 24 24 26 21 22 22 21 22 27 24 26 28 32 36 29 33 28 22 23 23 25 24 22 21
30 30 31 28 40 34 34 34 28 27 28 21 24 22 22 21 20 22 20 19 23 20 21 25 21 22 23 22 21 26 24 26 27 35 40 33 40 29 25 25 23 26 25 23 21
31 30 31 29 40 40 39 33 28 35 34 28 24 25 25 23 22 24 21 20 23 24 25 27 21 20 22 22 22 23 27 37 42 46 43 34 34 31 28 26 24 25 27 25 25
30 30 30 29 29 31 33 31 38 45 21 30 27 28 26 27 24 26 28 28 28 32 31 24 26 24 22 24 26 30 34 38 35 51 41 38 33 30 20 22 24 29 26 25 23
28 29 30 30 37 39 32 40 46 31 26 25 28 29 30 28 26 29 32 34 32 28 34 29 29 28 25 26 25 29 32 34 27 39 34 31 36 23 24 25 25 24 24 24 26
28 27 29 31 38 40 34 48 35 35 24 30 27 30 31 27 26 27 32 34 29 31 32 32 27 25 26 24 24 30 33 29 37 40 42 38 29 22 24 29 29 27 27 27 29
30 29 30 32 34 37 46 51 40 25 24 26 32 31 34 32 28 31 32 26 27 25 22 25 26 27 28 24 27 27 28 32 43 41 46 44 40 31 24 31 27 27 28 29 30
46 49 45 41 39 41 57 55 34 22 24 26 29 24 25 32 31 32 24 22 27 26 24 26 28 28 28 32 33 33 34 35 38 50 47 50 44 29 30 26 27 30 31 32 36
53 61 60 58 48 57 63 44 27 23 23 27 27 28 27 23 29 28 24 25 25 25 27 27 37 40 35 27 27 30 31 37 47 39 49 50 48 25 34 32 31 32 37 39 38
56 54 64 56 63 68 51 37 30 28 28 28 28 30 27 26 25 26 33 31 27 28 32 30 38 42 31 32 27 27 28 30 38 42 45 51 47 29 32 31 36 38 40 40 40
48 80 67 64 59 50 47 42 38 32 30 29 30 30 31 32 28 27 38 34 30 32 28 29 41 38 35 28 37 39 37 32 36 52 50 43 36 29 33 38 34 40 41 42 38
58 66 58 87 76 62 48 43 45 41 37 35 33 36 36 37 33 33 42 40 38 34 34 38 47 48 45 44 45 47 50 51 53 49 56 42 48 39 38 38 43 43 42 39 38
66 65 63 60 54 62 62 59 47 40 44 40 40 38 39 38 35 36 38 44 40 45 41 48 49 52 55 47 54 63 56 57 55 51 52 49 50 38 43 43 43 40 40 42 51
47 78 59 56 63 70 70 50 48 38 36 32 40 42 44 43 34 36 36 36 38 48 51 55 62 68 72 60 61 60 52 52 52 48 47 53 44 45 45 44 40 39 41 50 51

GFSSW_850_rhum_075.txt.gz
RH
32 31 30 30 28 23 19 17 28 30 28 26 24 23 22 21 21 20 19 20 15 14 16 19 20 21 25 25 26 26 27 29 24 23 21 18 20 18 22 23 24 23 23 22 24
31 31 30 28 25 22 18 18 30 30 28 25 23 22 20 20 20 19 19 16 17 16 17 20 17 18 21 24 27 29 37 27 21 21 22 20 22 20 20 20 20 20 19 23 26
29 30 29 27 24 21 17 19 29 30 28 26 23 21 19 19 18 18 18 17 18 16 16 18 18 19 21 23 25 32 37 32 25 21 23 24 23 19 22 24 17 15 16 19 25
28 28 28 25 22 20 16 20 29 29 27 26 24 22 20 19 24 20 19 18 18 16 16 17 17 17 20 22 23 29 26 27 24 22 22 22 20 21 20 17 14 16 19 20 21
26 27 26 24 21 19 16 23 29 28 26 25 24 22 21 21 19 20 20 18 17 18 17 17 18 18 21 21 21 25 23 20 20 20 21 21 22 23 18 11 15 15 17 17 19
25 24 23 21 19 17 16 29 28 27 25 24 23 22 21 22 20 20 19 18 17 19 18 18 18 19 20 22 21 21 23 23 18 17 20 23 22 22 13 15 15 16 16 16 17
23 21 19 17 16 15 20 31 28 26 24 23 22 22 21 20 20 21 20 19 18 19 19 18 20 21 19 21 21 22 26 25 20 19 20 23 22 26 12 17 17 17 18 19 17
17 16 14 14 15 17 30 29 28 26 24 23 22 21 21 20 20 20 20 20 20 20 20 19 19 19 20 22 24 24 25 29 19 19 22 20 30 23 17 17 18 18 18 19 19
17 16 15 17 19 28 31 29 27 25 24 23 23 22 20 21 20 20 20 21 20 21 20 21 20 21 24 30 30 30 28 25 23 17 20 22 26 22 20 17 19 20 20 20 19
14 17 18 21 27 32 31 28 26 24 23 24 26 25 22 21 20 20 21 22 22 21 21 23 24 33 35 33 30 26 28 24 25 18 22 28 31 28 20 20 20 20 21 20 17
15 18 20 24 28 31 29 27 26 26 25 22 22 21 19 20 20 19 20 22 22 21 25 26 32 34 30 30 26 26 26 26 24 22 25 26 30 28 25 22 22 22 21 19 17
16 18 22 26 26 28 28 24 24 30 29 24 21 22 19 20 20 20 20 20 22 27 26 28 34 30 26 27 27 24 25 28 25 23 27 30 32 27 25 24 22 23 23 20 17
18 20 24 26 28 26 25 24 24 28 29 22 21 23 23 21 20 18 19 20 22 27 28 30 22 24 25 22 23 24 25 25 26 30 27 34 27 29 22 24 24 25 26 21 18
20 24 28 29 28 26 25 24 26 26 34 27 26 25 24 21 22 20 19 19 21 25 27 29 23 21 24 23 24 27 24 26 28 32 35 32 35 28 24 24 26 28 25 20 19
25 29 30 30 34 33 35 34 28 27 27 19 25 24 23 22 21 23 22 20 24 22 22 24 22 22 23 23 24 27 26 28 29 36 40 34 40 32 26 27 26 28 25 22 20
28 31 32 31 42 40 39 32 28 32 35 29 25 26 26 24 24 24 22 21 23 24 25 26 22 21 23 23 22 25 28 35 47 48 42 33 36 32 31 29 26 28 24 22 24
30 31 32 31 34 43 40 30 39 39 20 30 28 29 27 29 26 26 28 27 28 30 32 26 27 25 23 24 27 29 30 34 26 46 37 39 39 32 23 23 26 30 24 25 28
32 32 32 33 34 34 36 40 38 27 31 26 30 31 30 29 26 30 32 33 31 28 36 33 26 29 25 24 26 30 31 32 25 36 37 34 35 25 29 28 24 22 24 28 30
33 31 32 33 43 44 33 47 40 38 27 32 28 31 32 28 26 29 34 36 32 33 33 35 29 27 26 25 24 31 35 29 42 44 47 42 32 23 29 33 29 26 27 29 30
34 31 31 33 42 43 46 50 36 31 26 27 33 31 36 32 31 33 35 29 26 32 24 27 28 29 28 25 29 29 30 35 44 38 45 45 42 36 29 33 28 28 28 29 32
37 33 40 36 40 44 61 56 40 28 25 28 32 29 31 34 34 36 30 24 27 28 24 28 26 28 28 31 34 34 35 40 41 49 45 50 42 33 34 31 28 28 32 34 37
55 61 62 52 50 63 64 48 31 26 25 28 27 28 27 30 35 32 32 24 26 26 29 28 34 37 32 28 27 29 32 38 46 41 52 52 52 26 34 30 29 31 36 39 40
58 66 75 54 68 72 57 42 32 29 27 26 27 29 27 26 26 30 26 32 28 28 31 32 38 38 26 32 29 31 33 36 42 44 54 51 45 32 36 36 34 37 41 42 42
54 82 75 69 61 57 52 45 40 32 30 28 27 31 32 33 30 26 34 34 32 31 29 29 40 31 30 25 36 38 37 33 37 53 50 50 41 34 35 39 38 44 45 42 36
56 64 64 94 81 68 50 43 47 41 38 35 36 37 36 38 35 35 39 39 38 36 35 38 42 45 42 37 44 46 45 48 48 47 50 42 47 41 42 42 44 44 38 36 38
67 68 68 60 60 66 68 62 51 43 43 43 41 40 42 39 35 35 44 43 39 44 40 50 48 51 52 49 52 64 60 58 56 54 55 54 56 41 44 45 41 38 39 42 51
56 77 59 64 74 76 75 58 56 42 39 33 41 41 46 42 31 30 32 34 36 46 51 54 63 65 64 63 62 66 55 57 63 60 56 64 52 48 47 42 40 40 43 47 50

GFSSW_850_rhum_081.txt.gz
RH
25 28 26 29 28 31 27 24 19 23 31 31 28 25 24 22 21 22 20 20 16 15 17 21 22 21 24 25 26 24 29 31 30 37 26 19 21 20 20 22 22 20 19 20 20
22 30 28 28 27 29 26 24 19 26 31 30 28 24 23 21 20 20 19 18 17 16 17 18 16 17 21 26 29 29 37 27 20 19 22 21 23 23 22 21 19 17 17 17 17
20 22 29 30 30 26 26 24 20 28 31 29 27 24 22 20 19 18 19 18 18 17 16 17 18 18 20 25 27 32 36 32 25 20 22 25 26 24 23 26 18 20 17 17 16
20 18 21 27 28 24 26 24 20 30 31 29 27 25 22 20 23 20 19 19 19 17 17 17 17 17 21 22 24 30 28 29 26 24 27 29 23 23 23 20 20 20 18 17 17
20 23 26 29 29 27 25 22 20 31 30 28 27 25 23 22 19 20 21 20 18 17 19 18 18 18 20 21 22 28 23 22 21 22 23 24 26 26 23 19 18 18 18 19 19
22 25 27 26 29 25 23 21 19 32 30 28 26 25 24 23 21 20 22 19 18 18 19 19 19 19 21 23 23 21 23 23 22 23 21 24 23 24 20 18 18 18 20 22 21
24 25 25 26 28 24 21 19 20 33 29 28 26 25 24 22 22 21 20 19 19 19 20 20 20 20 20 22 22 24 25 25 22 22 22 23 17 26 21 18 18 21 24 24 24
26 25 24 24 26 22 19 18 30 32 29 28 27 25 24 22 21 21 21 21 20 21 20 20 19 22 22 24 23 24 25 27 19 19 24 23 23 18 20 18 20 22 24 26 24
26 24 24 24 21 18 17 21 35 32 28 28 27 26 22 21 21 21 21 21 22 22 22 22 22 22 25 27 28 28 28 26 25 21 20 21 24 21 21 20 21 22 25 26 23
22 21 19 18 17 18 23 37 35 32 30 30 30 26 24 23 22 21 21 22 22 23 23 24 24 32 34 30 24 26 27 27 27 21 23 24 28 27 26 24 23 24 25 25 22
21 17 19 20 20 25 38 37 34 34 34 26 26 24 20 23 22 22 23 24 24 23 27 27 30 33 28 31 25 27 29 30 28 23 27 28 32 29 29 26 26 26 24 24 23
27 22 23 23 26 35 37 34 27 27 30 24 24 24 22 22 22 22 22 23 24 30 27 29 34 28 27 31 29 30 28 29 26 24 29 33 31 27 26 28 27 26 24 24 26
27 23 22 27 33 35 34 30 27 30 30 24 26 25 23 22 20 22 23 23 25 30 30 28 22 30 26 29 29 28 29 27 25 29 31 36 29 26 26 28 30 27 25 25 25
29 25 26 33 34 31 31 29 27 30 30 24 29 27 27 24 24 20 22 20 24 27 32 31 27 27 27 30 29 28 26 25 29 32 28 34 27 29 28 29 30 28 27 28 29
31 24 27 32 32 30 26 25 28 29 39 21 30 27 27 23 24 25 24 22 28 26 25 23 24 25 25 24 26 25 27 29 31 38 39 36 36 30 29 32 31 30 28 29 31
31 27 33 35 37 30 30 27 30 29 40 32 27 28 28 25 26 25 24 22 23 25 26 26 24 24 23 26 24 33 32 36 49 45 40 35 36 31 32 29 30 30 28 29 32
33 31 32 35 35 39 37 33 37 37 22 32 32 30 31 31 30 27 28 30 33 36 35 29 30 26 25 27 29 28 30 32 24 34 35 40 39 31 25 24 27 29 27 29 32
38 38 36 37 36 45 38 35 37 28 30 30 33 33 33 32 31 30 32 34 29 29 39 37 28 31 26 26 31 32 28 31 24 28 30 37 41 25 27 33 27 27 25 28 32
42 42 40 38 39 47 34 50 40 35 27 36 31 33 33 30 31 33 36 36 32 32 30 39 30 30 29 28 27 32 35 28 41 46 44 38 32 26 32 36 33 29 29 31 34
45 46 40 39 44 51 48 55 40 29 30 31 34 33 38 38 35 37 40 33 31 33 26 29 31 32 30 28 31 31 32 36 40 33 36 36 38 33 35 36 36 35 32 32 36
54 44 40 40 54 50 63 54 42 30 28 33 35 35 34 38 38 40 35 29 30 37 29 30 29 30 31 34 38 37 38 41 39 41 37 40 35 32 34 37 36 31 31 36 41
48 53 51 46 60 74 69 50 35 32 32 31 32 29 36 39 39 39 36 32 28 31 34 30 35 38 32 31 31 32 34 36 39 40 50 46 41 29 33 34 30 31 36 43 43
48 79 69 60 73 78 59 47 38 32 30 30 32 31 29 34 31 36 33 32 30 32 35 34 38 38 30 31 32 34 37 38 43 45 52 44 36 36 36 37 32 34 41 45 43
50 92 81 69 61 62 55 50 44 35 30 28 30 31 32 32 33 31 33 37 34 31 29 28 40 32 32 24 35 37 38 41 38 49 47 43 31 35 40 44 39 40 40 46 39
61 72 76 96 88 60 50 48 49 43 39 34 36 34 33 36 36 35 34 41 39 43 37 35 38 41 36 28 37 36 37 43 44 40 38 27 38 30 33 38 38 36 47 42 42
58 69 77 82 57 60 61 57 50 43 45 44 40 40 40 38 34 38 40 43 39 44 40 50 46 44 44 49 44 50 51 50 45 38 46 43 43 33 33 35 44 47 43 42 44
62 61 55 81 81 62 62 55 52 41 39 35 40 47 49 41 30 26 29 34 36 46 49 51 62 60 57 61 56 64 59 54 55 58 51 58 45 50 57 56 52 44 42 42 50

GFSSW_850_rhum_087.txt.gz
RH
77 62 34 32 31 30 28 28 24 21 17 29 31 28 26 25 23 22 28 23 21 17 20 29 32 27 25 24 26 21 18 19 18 19 15 17 14 12 14 14 11 14 15 23 17
70 54 41 29 31 28 27 27 26 19 18 30 31 28 26 24 22 29 24 20 16 16 28 24 17 18 17 22 21 18 18 14 12 10 11 11 14 13 13 11 10 11 14 19 22
54 44 31 21 29 30 25 27 26 18 19 31 30 27 25 23 26 20 22 20 17 16 27 19 17 16 16 18 18 16 15 13 11 12 12 15 15 15 14 13 16 18 17 18 20
48 31 31 25 30 30 30 31 23 19 18 31 30 27 25 23 24 21 19 19 18 16 24 19 17 16 16 16 16 16 13 14 15 18 18 16 17 15 15 16 19 19 20 21 20
42 23 29 26 29 31 30 28 23 20 19 32 30 27 25 31 23 20 20 20 19 17 20 18 18 17 16 13 15 16 13 14 15 17 18 17 17 16 17 18 18 22 24 25 26
28 22 27 29 30 30 28 29 24 21 20 33 30 28 30 27 22 20 22 21 24 20 19 19 18 18 17 16 16 16 15 14 14 14 15 18 15 19 16 17 18 21 24 27 30
29 22 23 25 25 30 30 25 24 21 20 32 29 28 36 26 23 21 23 24 23 21 20 21 20 19 18 16 17 16 16 11 12 16 16 18 17 18 17 17 17 18 22 28 30
27 26 25 24 29 26 29 27 24 20 22 32 30 29 31 25 24 22 22 21 20 21 22 20 21 21 19 20 16 15 13 15 14 14 18 18 14 14 16 15 17 18 20 25 29
26 28 27 28 30 29 28 25 22 17 25 33 32 37 27 24 23 25 24 22 23 23 21 20 22 21 21 17 14 14 12 14 15 14 14 15 13 14 17 17 16 17 19 23 27
27 32 31 32 28 27 25 24 21 28 33 32 32 34 27 25 24 24 24 23 23 24 24 23 21 20 17 15 17 13 13 12 14 15 14 15 15 13 16 18 15 17 19 23 29
30 33 33 32 27 25 22 21 33 31 27 34 29 27 23 25 24 24 25 24 23 23 23 22 23 21 12 12 12 15 14 14 12 15 19 17 16 14 16 19 16 17 20 24 31
32 32 33 31 24 24 19 30 25 31 31 25 27 31 27 24 23 24 24 23 23 24 20 23 24 16 14 16 17 16 17 16 13 16 20 16 17 17 19 18 17 17 20 26 29
33 31 30 29 27 22 19 20 23 31 32 26 29 29 28 26 22 22 24 22 22 24 22 24 16 17 17 19 20 18 17 15 17 16 17 20 20 22 19 19 19 18 22 25 28
36 35 37 33 34 28 18 16 28 33 33 25 31 29 28 25 22 21 23 21 20 20 19 17 16 19 19 18 17 18 15 16 18 21 19 18 18 23 21 22 22 22 25 25 28
39 40 39 31 43 41 26 22 32 39 46 20 26 29 26 24 24 23 23 22 20 19 18 18 21 23 22 18 16 19 20 20 22 22 20 18 23 10 19 21 21 21 22 28 31
41 39 43 38 38 40 32 32 35 39 43 26 24 26 26 25 23 26 25 23 21 18 18 17 20 17 17 19 18 22 22 24 24 22 25 15 19 18 20 18 18 18 22 28 31
46 38 41 29 38 36 33 37 40 39 21 31 29 26 24 25 24 22 24 25 24 28 26 20 20 18 20 21 23 23 21 24 25 30 22 22 24 15 15 14 14 17 21 27 31
50 45 38 23 33 39 40 33 38 21 21 25 26 26 27 24 23 23 24 26 22 20 20 23 26 20 21 19 18 24 20 21 23 16 17 24 24 18 15 16 16 16 19 25 30
69 52 40 26 36 42 41 42 31 18 17 28 27 31 30 26 24 24 24 24 20 20 22 18 22 24 22 20 20 24 27 19 20 19 21 12 15 18 17 19 19 18 19 24 29
61 46 45 33 42 53 47 39 23 22 25 25 26 24 30 29 28 26 22 18 19 17 16 16 26 25 26 23 24 25 20 24 19 22 24 17 18 16 22 20 20 20 20 24 28
70 53 52 40 47 56 49 35 26 28 29 26 24 26 23 26 24 27 21 22 18 21 18 17 19 30 26 27 24 26 24 22 22 21 21 19 16 13 13 16 19 19 22 24 30
65 45 53 48 50 46 45 30 28 28 31 29 27 24 24 24 25 23 21 22 22 25 25 18 19 24 23 23 22 22 19 18 21 21 22 26 21 14 15 15 17 19 22 25 32
54 84 69 57 49 41 38 33 34 31 29 28 28 26 23 26 29 23 25 29 28 25 21 20 21 25 27 27 24 24 20 20 18 23 21 23 19 19 18 17 19 20 23 30 39
56 67 79 69 42 34 42 41 44 37 27 26 25 25 26 26 26 29 28 34 30 27 27 24 23 22 20 21 20 25 23 22 22 22 20 20 18 15 18 20 20 22 26 33 42
49 39 48 60 50 43 37 40 47 41 33 26 29 24 24 26 27 24 26 36 35 35 27 24 28 21 19 19 21 20 20 22 24 21 23 18 17 14 14 16 19 22 25 33 41
48 61 57 42 41 45 46 40 48 42 32 31 29 25 23 23 23 23 24 25 25 36 29 29 28 28 27 22 27 28 24 23 21 23 22 20 21 15 16 20 19 20 26 33 40
69 62 41 45 43 50 44 36 36 36 34 28 28 27 28 25 20 28 25 24 23 25 29 32 28 31 30 29 34 36 31 27 23 20 22 27 20 21 23 28 27 26 29 36 40